ZHONGXING-9

Last updated on Mon Sep 15 2025 00:02:46 GMT+0000 (Coordinated Universal Time)

1 33051U 08028A 25257.31811704 -.00000260 00000+0 00000+0 0 9993 2 33051 0.0631 97.7831 0005060 95.1698 7.3263 1.00273798 63274
UTC large
Height (km)
Speed (km/s)
/
Latitude / Longitude
Inclination (degrees)
Orbital Period (minutes)
Azimuth
Elevation
Range (km)
Doppler Factor

Next 0 passes for location: London (51.5072 / 0.1276)

Sorry there are no passes over London.